Location: Avully
(45.9633°N, 6.0228°E)
Time: 11:16:04
(UTC+00:00)

Cosmos 2333 Rocket - Pass Details

Date: 23 May 2024
Orbit: 839 x 863 km, 70.8° (Epoch: 14 June)

Event Time Altitude Azimuth Distance (km) Brightness Sun altitude
Rises 02:30:53 0° 330° (NNW) 3,426 5.6 -12.1°
Reaches altitude 10° 02:33:22 10° 327° (NNW) 2,490 4.8 -11.8°
Maximum altitude 02:38:59 60° 249° (WSW) 980 2.3 -11.2°
Drops below altitude 10° 02:44:36 10° 171° (S) 2,488 4.3 -10.5°
Sets 02:47:04 0° 167° (SSE) 3,423 5.0 -10.2°
